TimeEDT,TemperatureF,Dew PointF,Humidity,Sea Level PressureIn,VisibilityMPH,Wind Direction,Wind SpeedMPH,Gust SpeedMPH,PrecipitationIn,Events,Conditions,WindDirDegrees,DateUTC
12:52 AM,79.0,71.1,77,29.91,8.0,South,5.8,-,N/A,,Overcast,180,2013-08-13 04:52:00
1:52 AM,80.1,73.0,79,29.89,8.0,South,5.8,-,N/A,,Overcast,180,2013-08-13 05:52:00
2:52 AM,79.0,73.0,82,29.86,8.0,South,9.2,-,N/A,,Overcast,180,2013-08-13 06:52:00
3:52 AM,79.0,73.0,82,29.84,8.0,South,10.4,-,N/A,,Mostly Cloudy,180,2013-08-13 07:52:00
4:52 AM,79.0,73.9,84,29.81,8.0,South,12.7,-,N/A,,Overcast,190,2013-08-13 08:52:00
5:52 AM,79.0,73.0,82,29.80,8.0,SSW,11.5,-,N/A,,Overcast,200,2013-08-13 09:52:00
6:52 AM,79.0,72.0,79,29.79,7.0,SSW,9.2,-,0.00,,Overcast,210,2013-08-13 10:52:00
7:52 AM,79.0,71.1,77,29.81,8.0,West,10.4,-,N/A,,Overcast,270,2013-08-13 11:52:00
8:08 AM,78.8,71.6,78,29.81,8.0,West,6.9,-,0.00,Rain,Light Rain,260,2013-08-13 12:08:00
8:26 AM,78.8,71.6,78,29.81,7.0,West,10.4,-,0.00,,Overcast,270,2013-08-13 12:26:00
8:52 AM,79.0,71.1,77,29.81,7.0,WSW,11.5,16.1,0.00,Rain,Light Rain,250,2013-08-13 12:52:00
9:52 AM,78.1,70.0,76,29.81,9.0,West,9.2,-,0.00,Rain,Light Rain,280,2013-08-13 13:52:00
10:09 AM,78.8,68.0,69,29.81,10.0,WNW,10.4,24.2,0.00,,Overcast,300,2013-08-13 14:09:00
10:39 AM,78.8,66.2,65,29.82,10.0,WNW,11.5,-,0.00,,Overcast,290,2013-08-13 14:39:00
10:52 AM,78.1,66.9,68,29.82,10.0,WNW,9.2,-,0.00,,Overcast,300,2013-08-13 14:52:00
11:52 AM,79.0,64.9,62,29.82,10.0,WNW,6.9,-,N/A,,Overcast,290,2013-08-13 15:52:00
12:52 PM,81.0,64.9,58,29.81,10.0,WSW,5.8,-,N/A,,Overcast,250,2013-08-13 16:52:00
1:52 PM,84.0,64.9,53,29.79,10.0,WNW,6.9,-,N/A,,Mostly Cloudy,300,2013-08-13 17:52:00
2:52 PM,84.0,66.0,55,29.78,10.0,Variable,6.9,-,N/A,,Mostly Cloudy,0,2013-08-13 18:52:00
3:52 PM,86.0,66.0,51,29.77,10.0,WNW,5.8,-,N/A,,Mostly Cloudy,300,2013-08-13 19:52:00
4:52 PM,86.0,66.9,53,29.75,10.0,East,3.5,-,N/A,,Mostly Cloudy,80,2013-08-13 20:52:00
5:52 PM,87.1,66.0,49,29.75,10.0,West,3.5,-,N/A,,Mostly Cloudy,260,2013-08-13 21:52:00
6:52 PM,86.0,63.0,46,29.75,10.0,WNW,3.5,-,N/A,,Mostly Cloudy,300,2013-08-13 22:52:00
7:52 PM,84.0,66.9,56,29.76,10.0,SW,5.8,-,N/A,,Mostly Cloudy,220,2013-08-13 23:52:00
8:25 PM,82.4,66.2,58,29.78,10.0,SW,9.2,-,N/A,Thunderstorm,Thunderstorm,230,2013-08-14 00:25:00
8:32 PM,78.8,64.4,61,29.81,7.0,NW,20.7,34.5,0.00,Rain-Thunderstorm,Light Thunderstorms and Rain,310,2013-08-14 00:32:00
8:36 PM,73.4,66.2,78,29.81,1.8,WNW,15.0,34.5,0.07,Rain-Thunderstorm,Heavy Thunderstorms and Rain,290,2013-08-14 00:36:00
8:43 PM,71.6,66.2,83,29.80,1.0,NW,9.2,24.2,0.36,Rain-Thunderstorm,Heavy Thunderstorms and Rain,320,2013-08-14 00:43:00
8:52 PM,71.1,66.0,84,29.81,4.0,North,8.1,-,0.44,Rain-Thunderstorm,Thunderstorms and Rain,350,2013-08-14 00:52:00
8:55 PM,71.6,66.2,83,29.81,6.0,North,6.9,-,0.00,Rain-Thunderstorm,Light Thunderstorms and Rain,10,2013-08-14 00:55:00
9:04 PM,71.6,66.2,83,29.80,10.0,NE,5.8,-,0.00,Rain,Light Rain,40,2013-08-14 01:04:00
9:52 PM,73.0,68.0,84,29.81,10.0,South,3.5,-,0.00,,Overcast,180,2013-08-14 01:52:00
10:52 PM,73.0,69.1,87,29.82,10.0,WSW,5.8,-,N/A,,Overcast,250,2013-08-14 02:52:00
11:52 PM,75.0,68.0,79,29.82,10.0,NW,5.8,-,N/A,,Overcast,320,2013-08-14 03:52:00